DW7601 San Vito IT current weather conditions

sailwx.info

Wind from 338 at 5 knots gusting 10

Air temperature 16.1° C
Dewpoint 10.0° C

Last reported at 2015-Mar-31 01:41 UTC.
Time now 2015-Mar-31 02:10 UTC

Location: N 39°27' E 009°32'.
View on Google Maps.

See reports from other nearby stations

  
Tides and Currents Weather Stations Pressure Air Temp Water Temp Dewpoint Dewpoint Depression Visibility Wind Speed Wind Dir Waves Ship Positions
date/time (UTC)wind fromknots sea level pressurealtimeterstation pressurevisibilityair tempwater tempwave heightnotes
2015-Mar-31 01:41 338 5 gusting 10 16.1
2015-Mar-31 01:31 292 5 gusting 8 16.1
2015-Mar-31 01:21 16.1
2015-Mar-31 01:11 292 6 gusting 6 16.1
2015-Mar-31 01:01 338 6 gusting 8 16.1
2015-Mar-31 00:51 16.1
2015-Mar-31 00:41 338 4 gusting 11 16.1
2015-Mar-31 00:31 270 5 gusting 11 16.1
2015-Mar-31 00:21 338 6 gusting 12 16.1
2015-Mar-31 00:11 338 5 gusting 12 16.1
2015-Mar-31 00:01 292 6 gusting 12 16.1
2015-Mar-30 23:51 338 6 gusting 13 16.7
2015-Mar-30 23:41 315 7 gusting 11 16.7
2015-Mar-30 23:31 16.7
2015-Mar-30 23:21 292 6 gusting 8 16.7
2015-Mar-30 23:11 022 6 gusting 8 16.7
2015-Mar-30 23:01 270 6 gusting 12 16.7
2015-Mar-30 22:51 022 5 gusting 10 16.7
2015-Mar-30 22:41 338 5 gusting 12 16.7
2015-Mar-30 22:31 338 6 gusting 13 16.7
2015-Mar-30 22:21 022 6 gusting 13 16.7
2015-Mar-30 22:11 022 6 gusting 13 16.7
2015-Mar-30 22:01 022 6 gusting 13 16.7
2015-Mar-30 21:51 17.2
2015-Mar-30 21:41 338 5 gusting 6 17.2
2015-Mar-30 21:31 068 6 gusting 12 17.2
2015-Mar-30 21:21 17.2
2015-Mar-30 21:11 17.2
2015-Mar-30 21:01 338 7 gusting 15 17.8
2015-Mar-30 20:51 17.8
2015-Mar-30 20:41 270 8 gusting 14 17.8
2015-Mar-30 20:31 315 8 gusting 18 17.8
2015-Mar-30 20:21 17.8
2015-Mar-30 20:11 022 7 gusting 14 17.8
2015-Mar-30 20:01 292 7 gusting 12 17.8
2015-Mar-30 19:51 17.8
2015-Mar-30 19:41 338 7 gusting 18 17.8
2015-Mar-30 19:31 338 8 gusting 19 17.8
2015-Mar-30 19:21 270 10 gusting 13 17.8
2015-Mar-30 19:11 022 10 gusting 13 17.8
2015-Mar-30 19:01 292 9 gusting 13 17.8
2015-Mar-30 18:51 270 10 gusting 13 17.8
2015-Mar-30 18:41 270 11 gusting 19 17.8
2015-Mar-30 18:31 022 10 gusting 18 17.8
2015-Mar-30 18:21 248 11 gusting 19 17.8
2015-Mar-30 18:11 315 11 gusting 25 17.8
2015-Mar-30 18:01 022 11 gusting 19 18.3
2015-Mar-30 17:51 338 10 gusting 20 17.8
2015-Mar-30 17:31 338 10 gusting 15 18.3
2015-Mar-30 17:21 338 9 gusting 18 18.3
2015-Mar-30 17:11 18.3
2015-Mar-30 17:01 292 10 gusting 15 18.3
2015-Mar-30 16:51 18.9
2015-Mar-30 16:41 338 10 gusting 18 18.9
2015-Mar-30 16:31 270 10 gusting 13 19.4
2015-Mar-30 16:21 292 8 gusting 18 19.4
2015-Mar-30 16:11 022 8 gusting 17 19.4
2015-Mar-30 16:01 338 7 gusting 14 20.0
2015-Mar-30 15:51 338 7 gusting 14 20.6
2015-Mar-30 15:41 315 10 gusting 11 20.6
2015-Mar-30 15:31 315 10 gusting 18 21.1
2015-Mar-30 15:21 338 7 gusting 24 21.7
2015-Mar-30 15:11 158 7 gusting 12 21.7
2015-Mar-30 15:01 21.7
2015-Mar-30 14:51 315 8 gusting 15 21.7
2015-Mar-30 14:41 338 10 gusting 22 22.2
2015-Mar-30 14:31 315 11 gusting 22 22.2
2015-Mar-30 14:21 270 11 gusting 26 22.2
2015-Mar-30 14:11 22.2
2015-Mar-30 14:01 22.8
2015-Mar-30 13:51 022 6 gusting 15 22.8
2015-Mar-30 13:41 315 9 gusting 19 22.2
2015-Mar-30 13:31 270 7 gusting 15 22.8
2015-Mar-30 13:21 338 8 gusting 19 22.8
2015-Mar-30 13:11 338 7 gusting 17 22.8
2015-Mar-30 13:01 292 7 gusting 18 22.2
2015-Mar-30 12:51 270 7 gusting 18 22.2
2015-Mar-30 12:41 22.2
2015-Mar-30 12:31 022 8 gusting 17 22.2
2015-Mar-30 12:21 292 9 gusting 17 22.2
2015-Mar-30 12:11 292 10 gusting 17 21.7
2015-Mar-30 12:01 022 10 gusting 19 21.7
2015-Mar-30 11:51 338 11 gusting 20 21.7
2015-Mar-30 11:41 022 10 gusting 13 21.7
2015-Mar-30 11:31 292 9 gusting 20 21.7
2015-Mar-30 11:21 292 10 gusting 18 21.7
2015-Mar-30 11:11 21.1
2015-Mar-30 11:01 21.1
2015-Mar-30 10:51 225 10 gusting 19 21.1
2015-Mar-30 10:41 315 10 gusting 24 20.6
2015-Mar-30 10:31 338 10 gusting 19 21.1
2015-Mar-30 10:21 315 7 gusting 17 20.6
2015-Mar-30 10:11 20.0
2015-Mar-30 10:01 20.0
2015-Mar-30 09:51 20.6
2015-Mar-30 09:41 338 6 gusting 15 20.6
2015-Mar-30 09:31 20.6
2015-Mar-30 09:21 338 7 gusting 17 20.6
2015-Mar-30 09:11 338 6 gusting 15 20.0
2015-Mar-30 09:01 20.0
2015-Mar-30 08:51 158 6 gusting 18 19.4
2015-Mar-30 08:41 338 4 gusting 7 19.4
2015-Mar-30 08:31 180 6 gusting 13 18.9
2015-Mar-30 08:21 068 5 gusting 13 18.3
2015-Mar-30 08:11 022 4 gusting 8 18.3
2015-Mar-30 08:01 225 6 gusting 10 18.3
2015-Mar-30 07:51 068 5 gusting 7 17.8
2015-Mar-30 07:41 270 6 gusting 13 17.8
2015-Mar-30 07:31 338 6 gusting 14 17.2
2015-Mar-30 07:21 270 6 gusting 13 17.2
2015-Mar-30 07:11 338 6 gusting 13 16.7
2015-Mar-30 07:01 022 5 gusting 12 16.7
2015-Mar-30 06:51 292 6 gusting 12 16.1
2015-Mar-30 06:41 292 6 gusting 13 16.1
2015-Mar-30 06:31 16.1
2015-Mar-30 06:21 270 7 gusting 13 16.1
2015-Mar-30 06:11 022 6 gusting 13 16.1
2015-Mar-30 06:01 270 6 gusting 11 16.1
2015-Mar-30 05:51 202 4 gusting 11 15.6
2015-Mar-30 05:41 090 2 gusting 6 15.6
2015-Mar-30 05:31 15.6
2015-Mar-30 05:21 022 6 gusting 12 15.6
2015-Mar-30 05:11 338 6 gusting 12 15.6
2015-Mar-30 05:01 022 4 gusting 11 15.6
2015-Mar-30 04:51 338 6 gusting 14 15.6
2015-Mar-30 04:41 338 6 gusting 13 15.6
2015-Mar-30 04:31 270 4 gusting 8 15.6
2015-Mar-30 04:21 270 4 gusting 10 15.6
2015-Mar-30 04:11 270 4 gusting 2 15.6
2015-Mar-30 04:01 315 4 gusting 6 15.6
2015-Mar-30 03:51 15.6
2015-Mar-30 03:41 15.6
2015-Mar-30 03:31 270 6 gusting 13 15.6
2015-Mar-30 03:21 270 5 gusting 8 15.6
2015-Mar-30 03:11 022 4 gusting 6 15.6
2015-Mar-30 03:01 022 4 gusting 6 15.6
2015-Mar-30 02:51 15.6
2015-Mar-30 02:41 15.6
2015-Mar-30 02:31 270 4 gusting 6 15.6
2015-Mar-30 02:21 338 5 gusting 10 15.6
2015-Mar-30 02:11 338 2 gusting 10 15.6
2015-Mar-30 02:01 315 2 gusting 10 15.6
2015-Mar-30 01:51 022 4 gusting 10 15.6
2015-Mar-30 01:41 315 4 gusting 7 15.6
2015-Mar-30 01:31 338 4 gusting 11 15.0
2015-Mar-30 01:21 022 6 gusting 10 15.6
2015-Mar-30 01:11 15.6
2015-Mar-30 01:01 15.6
2015-Mar-30 00:51 022 5 gusting 12 15.6
2015-Mar-30 00:41 15.6
2015-Mar-30 00:31 315 5 gusting 6 15.0
2015-Mar-30 00:21 338 6 gusting 13 15.0
2015-Mar-30 00:11 270 5 gusting 11 15.0
2015-Mar-30 00:01 338 5 gusting 13 15.6
2015-Mar-29 23:51 045 5 gusting 13 15.6
2015-Mar-29 23:41 315 6 gusting 12 15.6
2015-Mar-29 23:31 022 6 gusting 12 15.6
2015-Mar-29 23:21 15.6
2015-Mar-29 23:11 15.6
2015-Mar-29 23:01 202 5 gusting 10 15.6
2015-Mar-29 22:51 15.6
2015-Mar-29 22:41 292 6 gusting 10 15.6
2015-Mar-29 22:31 022 8 gusting 17 15.6
2015-Mar-29 22:21 270 6 gusting 18 15.6
2015-Mar-29 22:11 315 8 gusting 8 15.6
2015-Mar-29 22:01 315 8 gusting 12 15.6
2015-Mar-29 21:51 158 7 gusting 12 15.6
2015-Mar-29 21:41 270 6 gusting 11 15.6
2015-Mar-29 21:31 292 7 gusting 11 15.6
2015-Mar-29 21:21 315 7 gusting 18 15.6
2015-Mar-29 21:11 338 7 gusting 17 15.6
2015-Mar-29 21:01 022 6 gusting 14 15.6
2015-Mar-29 20:51 15.0
2015-Mar-29 20:41 068 6 gusting 11 15.0
2015-Mar-29 20:31 022 6 gusting 10 15.0
2015-Mar-29 20:21 022 6 gusting 10 15.0
2015-Mar-29 20:11 338 5 gusting 6 15.0
2015-Mar-29 20:01 338 5 gusting 7 15.0
2015-Mar-29 19:51 270 4 gusting 8 15.0
2015-Mar-29 19:41 292 5 gusting 10 15.0
2015-Mar-29 19:31 15.0
2015-Mar-29 19:21 315 5 gusting 6 15.0
2015-Mar-29 19:11 15.0
2015-Mar-29 19:01 292 5 gusting 10 15.0
2015-Mar-29 18:51 15.0
2015-Mar-29 18:41 338 6 gusting 7 15.0
2015-Mar-29 18:31 339 5 gusting 10 15.6
2015-Mar-29 18:21 292 7 gusting 19 15.6
2015-Mar-29 18:11 112 6 gusting 19 15.6
2015-Mar-29 18:01 022 6 gusting 10 15.6
2015-Mar-29 17:51 022 6 gusting 11 15.6
2015-Mar-29 17:41 248 6 gusting 10 15.6
2015-Mar-29 17:31 315 6 gusting 11 16.1
2015-Mar-29 17:21 338 6 gusting 13 16.1
2015-Mar-29 17:11 270 6 gusting 15 16.1
2015-Mar-29 17:01 338 6 gusting 15 16.7
2015-Mar-29 16:51 022 6 gusting 15 16.7
2015-Mar-29 16:41 16.7
2015-Mar-29 16:31 338 5 gusting 10 17.2
2015-Mar-29 16:21 158 6 gusting 12 17.2
2015-Mar-29 16:11 022 6 gusting 10 17.8
2015-Mar-29 16:01 045 5 gusting 7 17.8
2015-Mar-29 15:51 315 5 gusting 8 18.3
2015-Mar-29 15:41 338 6 gusting 12 18.3
2015-Mar-29 15:31 270 4 gusting 8 18.9
2015-Mar-29 15:21 315 5 gusting 10 18.9
2015-Mar-29 15:11 292 6 gusting 10 19.4
2015-Mar-29 15:01 248 4 gusting 7 20.6
2015-Mar-29 14:51 292 5 gusting 7 21.1
2015-Mar-29 14:41 338 4 gusting 5 21.1
2015-Mar-29 14:31 21.1
2015-Mar-29 14:21 21.1
2015-Mar-29 14:11 338 4 gusting 6 21.1
2015-Mar-29 14:01 315 5 gusting 12 21.1
2015-Mar-29 13:31 292 4 gusting 6 21.1
2015-Mar-29 13:21 270 5 gusting 7 21.1
2015-Mar-29 13:11 248 4 gusting 6 21.7
2015-Mar-29 13:01 294 5 gusting 7 21.7
2015-Mar-29 12:51 270 5 gusting 7 21.1
2015-Mar-29 12:41 315 5 gusting 10 21.1
2015-Mar-29 12:31 21.1
2015-Mar-29 12:21 338 5 gusting 6 21.7
2015-Mar-29 12:11 270 5 gusting 6 21.1
2015-Mar-29 12:01 292 4 gusting 11 21.1
2015-Mar-29 11:51 270 6 gusting 13 21.1
2015-Mar-29 11:41 270 5 gusting 13 21.1
2015-Mar-29 11:31 338 5 gusting 8 21.1
2015-Mar-29 11:21 338 4 gusting 10 21.1
2015-Mar-29 11:11 21.1
2015-Mar-29 11:01 292 6 gusting 10 20.6
2015-Mar-29 10:51 270 5 gusting 10 21.1
2015-Mar-29 10:41 292 2 gusting 5 21.1
2015-Mar-29 10:31 270 1 gusting 5 21.1
2015-Mar-29 10:21 248 4 gusting 6 20.6
2015-Mar-29 10:11 338 4 gusting 2 20.0
2015-Mar-29 10:01 225 4 gusting 6 20.0
2015-Mar-29 09:51 315 2 gusting 7 20.0
2015-Mar-29 09:41 338 4 gusting 8 19.4
2015-Mar-29 09:31 045 5 gusting 8 18.9
2015-Mar-29 09:21 022 4 gusting 6 18.3
2015-Mar-29 09:11 270 2 gusting 4 17.8
2015-Mar-29 09:01 338 4 gusting 6 17.8
2015-Mar-29 08:51 248 4 gusting 6 17.8
2015-Mar-29 08:41 338 2 gusting 6 17.8
2015-Mar-29 08:31 315 4 gusting 10 18.3
2015-Mar-29 08:21 17.8
2015-Mar-29 08:11 338 4 gusting 6 17.2
2015-Mar-29 08:01 16.7
2015-Mar-29 07:51 16.1
2015-Mar-29 07:41 315 4 gusting 6 16.1
2015-Mar-29 07:31 066 2 gusting 6 15.6
2015-Mar-29 07:21 15.0
2015-Mar-29 07:11 15.0
2015-Mar-29 07:01 15.0
2015-Mar-29 06:51 022 2 gusting 5 14.4
2015-Mar-29 06:41 338 2 gusting 6 13.9
2015-Mar-29 06:31 022 2 gusting 5 13.9
2015-Mar-29 06:21 13.3
2015-Mar-29 06:11 315 4 gusting 6 13.3
2015-Mar-29 06:01 12.8
2015-Mar-29 05:51 315 4 gusting 8 12.8
2015-Mar-29 05:41 292 4 gusting 10 11.7
2015-Mar-29 05:31 022 5 gusting 12 11.7
2015-Mar-29 05:21 338 4 gusting 10 11.1
2015-Mar-29 05:11 10.6
2015-Mar-29 05:01 022 2 gusting 6 10.6
2015-Mar-29 04:51 068 5 gusting 7 10.6
2015-Mar-29 04:41 022 6 gusting 8 10.6
2015-Mar-29 04:31 022 5 gusting 8 10.6
2015-Mar-29 04:21 022 5 gusting 7 10.6
2015-Mar-29 04:11 022 4 gusting 7 10.6
2015-Mar-29 04:01 022 4 gusting 7 10.6
2015-Mar-29 03:51 315 4 gusting 6 10.6
2015-Mar-29 03:41 068 5 gusting 6 10.6
2015-Mar-29 03:31 022 5 gusting 7 10.6
2015-Mar-29 03:21 022 6 gusting 7 10.6
2015-Mar-29 03:11 068 5 gusting 7 10.6
2015-Mar-29 03:01 022 4 gusting 6 10.6
2015-Mar-29 02:51 022 4 gusting 6 10.6
2015-Mar-29 02:41 068 2 gusting 6 10.6
2015-Mar-29 02:31 022 4 gusting 6 11.1
2015-Mar-29 02:21 022 2 gusting 6 11.1
2015-Mar-29 02:11 022 4 gusting 6 11.1
2015-Mar-29 02:01 11.1